Flag for Germany Weather past 2 weeks in Bietigheim-Bissingen, Baden-Württemberg, Germany

Now
56 °F

Partly sunny.


Feels Like: 56 °F
Forecast: 45 / 67 °F
Wind: 1 mph from South

Location: Stuttgart-Echterdingen

Current Time: Aug 23, 2014 at 9:59:35 AM

Latest Report: Aug 23, 2014 at 9:00 AM


Visibility: 44 mi

Pressure: 29.99 "Hg

Humidity: 77%

Dew point: 49 °F

Location of Bietigheim-BissingenLocation

Historic Weather in Bietigheim-Bissingen — Graph

°F

Bietigheim-Bissingen temperature yesterday

Maximum temperature yesterday: 67 °F (at 3:00 PM)
Minimum temperature yesterday: 48 °F (at 7:00 AM)
Average temperature yesterday: 58 °F

Past Weeks' High & Low Weather Summary

 TemperatureHumidityPressure
High82 °F (Aug 10, 6:00 PM)96% (Aug 8, 9:00 AM)30.18 "Hg (Aug 8, 9:00 AM)
Low48 °F (Aug 21, 7:00 AM)43% (Aug 12, 3:00 PM)29.67 "Hg (Aug 13, 5:00 PM)
Average61 °F73%29.95 "Hg
* Reported Aug 8 9:00 AM — Aug 23 9:00 AM, Bietigheim-Bissingen, Weather by CustomWeather, © 2014

Note: Actual official high and low records may vary slightly from our data, if they occured in-between our weather recording intervals... More about our weather records

Advertising

Bietigheim-Bissingen weather history for previous 24 hours

 ConditionsComfort  
Time TempWeatherWind HumidityBarometerVisibility
9:00 AM
Aug 23
56 °FPartly sunny.1 mph77%29.99 "Hg43 mi
8:00 AM54 °FOvercast.1 mph79%30.00 "Hg47 mi
7:00 AM51 °FOvercast.1 mph91%30.00 "Hg43 mi
6:00 AM50 °FPassing clouds.1 mph90%30.00 "Hg31 mi
4:00 AM53 °FPassing clouds.No wind79%29.99 "Hg31 mi
3:00 AM54 °FPassing clouds.1 mph77%29.99 "Hg31 mi
2:00 AM54 °FPassing clouds.1 mph77%30.00 "Hg31 mi
1:00 AM52 °FPassing clouds.1 mph83%30.01 "Hg31 mi
12:00 AM52 °FPassing clouds.1 mph80%30.01 "Hg37 mi
11:00 PM
Aug 22
55 °FPassing clouds.2 mph75%30.00 "Hg37 mi
10:00 PM59 °FPassing clouds.2 mph65%29.99 "Hg37 mi
9:00 PM62 °FPassing clouds.1 mph54%29.96 "Hg43 mi
8:00 PM64 °FScattered clouds.2 mph52%29.94 "Hg43 mi
7:00 PM66 °FScattered clouds.2 mph47%29.94 "Hg43 mi
6:00 PM66 °FScattered clouds.3 mph45%29.95 "Hg37 mi
5:00 PM67 °FPartly sunny.5 mph48%29.95 "Hg37 mi
4:00 PM67 °FPartly sunny.5 mph47%29.96 "Hg37 mi
3:00 PM67 °FOvercast.5 mph46%29.96 "Hg37 mi
2:00 PM65 °FOvercast.2 mph51%29.98 "Hg37 mi
1:00 PM65 °FOvercast.3 mph43%29.98 "Hg37 mi
12:00 PM65 °FOvercast.2 mph53%29.99 "Hg37 mi
11:00 AM61 °FOvercast.2 mph66%30.02 "Hg37 mi
10:00 AM56 °FOvercast.1 mph76%30.02 "Hg37 mi
9:00 AM53 °FOvercast.1 mph83%30.03 "Hg31 mi
Weather by CustomWeather, © 2014

See weather overviewHow to use our weather pages